Location: Churchill Northern Studies Centre
(58.7378°N, 93.8201°W)
Time: 08:45:33
(UTC-05:00)

Vanguard 3 - Visible Passes

Search period start: 22 October 2017 00:00
Search period end: 01 November 2017 00:00
Orbit: 510 x 3263 km, 33.3° (Epoch: 21 October)

Date Brightness Start Highest point End Pass type
(mag) Time Alt. Az. Time Alt. Az. Time Alt. Az.
22 Oct 10.7 04:43:49 10° S 04:48:04 12° SSE 04:51:45 10° SSE visible
22 Oct 10.4 06:54:51 10° SSW 06:58:54 13° S 07:02:18 10° SSE visible
23 Oct 10.9 03:32:27 10° SSE 03:34:20 11° SSE 03:36:40 10° SSE visible
23 Oct 10.5 05:39:20 10° SSW 05:45:32 15° S 05:50:29 10° SSE visible
24 Oct 10.6 04:27:28 13° S 04:31:52 15° S 04:37:39 10° SE visible
24 Oct 10.4 06:36:52 10° SW 06:42:52 15° SSW 06:47:36 10° SSE visible
25 Oct 10.8 03:17:51 14° SSE 03:17:57 14° SSE 03:23:40 10° SE visible
25 Oct 10.5 05:22:25 12° SSW 05:29:22 18° S 05:35:39 10° SE visible
25 Oct 10.4 07:36:01 10° SW 07:39:55 12° SSW 07:43:14 10° S visible
26 Oct 10.6 04:12:46 17° S 04:15:32 18° S 04:22:49 10° SE visible
26 Oct 10.4 06:19:06 10° SW 06:26:42 17° SSW 06:32:31 10° SSE visible
27 Oct 10.8 03:03:04 17° SSE 03:03:04 17° SSE 03:09:04 10° SE visible
27 Oct 10.4 05:07:38 16° SSW 05:13:04 20° S 05:20:29 10° SE visible
27 Oct 10.5 07:18:25 10° SW 07:23:44 14° SSW 07:28:06 10° S visible
28 Oct 11.1 01:53:21 11° SE 01:53:21 11° SE 01:53:54 10° SE visible
28 Oct 10.5 03:57:55 21° S 03:59:04 21° S 04:07:38 10° SE visible
28 Oct 10.4 06:02:29 12° SW 06:10:25 19° SSW 06:17:11 10° SSE visible
29 Oct 10.8 02:48:10 18° SSE 02:48:10 18° SSE 02:53:57 10° SE visible
29 Oct 10.4 04:52:45 20° SSW 04:56:39 22° S 05:05:05 10° SE visible
29 Oct 10.5 07:00:55 10° WSW 07:07:26 15° SSW 07:12:40 10° S visible
30 Oct 11.1 01:38:25 11° ESE 01:38:25 11° ESE 01:39:07 10° ESE visible
30 Oct 10.5 03:42:59 23° S 03:42:59 23° S 03:52:11 10° SE visible
30 Oct 10.4 05:47:33 15° SW 05:54:00 20° SSW 06:01:40 10° SSE visible
31 Oct 10.8 02:33:13 19° SE 02:33:13 19° SE 02:38:29 10° ESE visible
31 Oct 10.4 04:37:48 23° SSW 04:40:05 24° S 04:49:30 10° SE visible
31 Oct 10.6 06:43:30 10° WSW 06:50:59 16° SSW 06:56:59 10° S visible
